Location: Northern Prairie Star Party
(53.2167°N, 112.5333°W)
Time: 17:06:00
(UTC-06:00)

Amateur Radio Satellites - All Passes

Search period start: 27 July 2016 16:36
Search period end: 28 July 2016 16:36
Location: Northern Prairie Star Party, 53.2167°N, 112.5333°W

Satellite Date Start Highest point End Downlink Frequencies (MHz)
Time Altitude Azimuth
RS-15 27 Jul 16:37:32 16:49:44 71° 236° (WSW) 17:01:52 29.354- 29.394
ITUPSAT 1 27 Jul 16:40:48 16:45:33 65° 290° (WNW) 16:50:16 437.325
GONETS M04 27 Jul 16:42:32 16:51:14 90° 112° (ESE) 17:00:04
AO-85 27 Jul 16:43:53 16:48:56 46° 325° (NW) 16:53:39 145.980
HORYU 2 27 Jul 16:45:26 16:49:41 43° 66° (ENE) 16:53:58 437.375
NOAA 18 27 Jul 16:48:44 16:52:19 18° 48° (NE) 16:55:54 137.9125
MOZHAYETS 4 27 Jul 16:54:39 16:58:51 34° 95° (E) 17:03:00
STARS 27 Jul 16:55:33 16:58:39 18° 90° (E) 17:01:43 437.465
DANDE 27 Jul 16:56:22 16:58:05 16° 267° (W) 16:59:50 436.750
Cosmos 2499 27 Jul 17:05:07 17:14:03 88° 280° (W) 17:22:38 435.465 / 435.565
HO-68 27 Jul 17:06:53 17:09:21 12° 27° (NNE) 17:11:49 435.675
Cubesat XI-IV 27 Jul 17:24:16 17:28:40 26° 57° (ENE) 17:33:05 437.490
BRITE-PL 27 Jul 17:25:45 17:29:16 27° 62° (ENE) 17:32:52 437.365/2234.400
SWISSCUBE 27 Jul 17:34:22 17:38:12 24° 302° (WNW) 17:42:00 437.505
AO-7 27 Jul 17:46:25 17:53:15 27° 270° (W) 18:00:08 29.400- 29.500
CUTE-I 27 Jul 17:47:07 17:52:01 37° 61° (ENE) 17:56:55 437.470
KKS-1 27 Jul 17:53:36 17:58:08 82° 287° (WNW) 18:02:38 437.445
SO-50 27 Jul 17:55:11 17:59:20 32° 240° (WSW) 18:03:21 436.795
BEESAT 27 Jul 17:56:03 17:59:22 19° 306° (NW) 18:02:40 436.000
NOAA 15 27 Jul 18:05:22 18:10:32 61° 68° (ENE) 18:15:43 137.62
LilacSat-2 27 Jul 18:09:43 18:13:21 39° 68° (ENE) 18:17:02 437.200
CUBESAT XI-V 27 Jul 18:15:14 18:19:21 31° 94° (E) 18:23:26 437.345
DOVE 4 27 Jul 18:16:08 18:19:36 23° 58° (ENE) 18:23:13 437.250
ITUPSAT 1 27 Jul 18:20:12 18:22:33 14° 311° (NW) 18:24:53 437.325
HORYU 2 27 Jul 18:22:29 18:26:24 29° 265° (W) 18:30:21 437.375
GOMX 1 27 Jul 18:24:49 18:28:52 45° 68° (ENE) 18:33:09 467.674
CINEMA 3 27 Jul 18:26:07 18:28:05 13° 49° (NE) 18:30:05 145.822/145.860
AO-85 27 Jul 18:26:30 18:30:29 23° 348° (NNW) 18:34:14 145.980
NOAA 18 27 Jul 18:26:36 18:32:08 72° 68° (ENE) 18:37:41 137.9125
STARS 27 Jul 18:31:02 18:35:29 69° 289° (WNW) 18:39:54 437.465
MOZHAYETS 4 27 Jul 18:31:50 18:36:04 37° 295° (WNW) 18:40:15
BEESAT 3 27 Jul 18:32:17 18:33:26 11° 111° (ESE) 18:34:35 437.485
GONETS M04 27 Jul 18:42:05 18:49:23 29° 305° (NW) 18:56:45
YUBILEINY 27 Jul 18:44:18 18:49:37 17° 40° (NE) 18:54:54 435.215
HO-68 27 Jul 18:48:48 18:54:59 33° 52° (NE) 19:01:12 435.675
RS-15 27 Jul 18:51:10 19:00:01 24° 262° (W) 19:08:50 29.354- 29.394
SEEDS 27 Jul 18:51:49 18:52:41 11° 51° (NE) 18:53:32 437.485
PCSat 27 Jul 18:57:49 18:59:54 12° 102° (ESE) 19:01:59 145.827
Cosmos 2499 27 Jul 19:01:01 19:08:23 29° 304° (NW) 19:15:32 435.465 / 435.565
Cubesat XI-IV 27 Jul 19:02:59 19:08:21 68° 257° (WSW) 19:13:46 437.490
BRITE-PL 27 Jul 19:03:47 19:07:41 39° 263° (W) 19:11:41 437.365/2234.400
CUTE-I 27 Jul 19:26:52 19:32:00 45° 262° (W) 19:37:11 437.470
CUBEBUG 2 27 Jul 19:28:46 19:31:29 15° 53° (NE) 19:34:12 437.445
AAUSAT CUBESAT 2 27 Jul 19:29:01 19:31:04 13° 55° (NE) 19:33:06 437.432
KKS-1 27 Jul 19:31:27 19:34:03 15° 307° (NW) 19:36:39 437.445
CANX-2 27 Jul 19:32:27 19:36:14 31° 64° (ENE) 19:40:00 2200.000
LilacSat-2 27 Jul 19:44:35 19:47:48 24° 267° (W) 19:51:03 437.200
CUTE 1.7 + AOD 2 27 Jul 19:45:35 19:49:30 36° 66° (ENE) 19:53:25 437.475
NOAA 15 27 Jul 19:46:24 19:50:43 26° 268° (W) 19:55:05 137.62
Oscar 11 27 Jul 19:47:23 19:48:20 11° 50° (NE) 19:49:17 145.826/435.025
CUBESAT XI-V 27 Jul 19:52:32 19:56:52 41° 293° (WNW) 20:01:12 437.345
DOVE 4 27 Jul 19:52:36 19:56:55 60° 259° (W) 20:01:32 437.250
STRAND 1 27 Jul 19:57:26 20:01:33 24° 91° (E) 20:05:36 437.568
CINEMA 3 27 Jul 19:59:42 20:04:14 59° 70° (ENE) 20:09:01 145.822/145.860
GOMX 1 27 Jul 20:03:46 20:07:16 24° 269° (W) 20:10:54 467.674
BEESAT 3 27 Jul 20:06:27 20:10:22 70° 130° (SE) 20:14:19 437.485
Cosmos 2504 27 Jul 20:07:07 20:12:06 16° 41° (NE) 20:16:54 435.465 / 435.565
AO-85 27 Jul 20:08:36 20:12:26 23° 12° (NNE) 20:16:02 145.980
NOAA 18 27 Jul 20:08:57 20:13:19 24° 269° (W) 20:17:45 137.9125
STARS 27 Jul 20:09:01 20:11:04 13° 309° (NW) 20:13:07 437.465
BEESAT 2 27 Jul 20:13:49 20:17:40 49° 126° (SE) 20:21:32 435.950
O/OREOS (USA 219) 27 Jul 20:16:19 20:17:13 11° 96° (E) 20:18:06 437.305
Cosmos 2491 27 Jul 20:20:34 20:24:54 15° 67° (ENE) 20:29:15 435.465 / 435.565
SEEDS 27 Jul 20:23:23 20:27:33 59° 71° (ENE) 20:31:43 437.485
COMPASS 1 27 Jul 20:34:07 20:38:12 54° 70° (ENE) 20:42:18 437.405
HO-68 27 Jul 20:35:00 20:42:12 77° 254° (WSW) 20:49:27 435.675
PCSat 27 Jul 20:36:54 20:42:14 61° 123° (ESE) 20:47:36 145.827
FUNcube-1 27 Jul 20:38:19 20:42:04 26° 60° (ENE) 20:45:50 145.935
ZACube-1 27 Jul 20:39:28 20:43:19 27° 61° (ENE) 20:47:12 437.345
UWE-3 27 Jul 20:39:46 20:44:01 37° 65° (ENE) 20:48:20 435.000/436.395/437.385
YUBILEINY 27 Jul 20:40:32 20:49:09 50° 68° (ENE) 20:57:39 435.215
Cubesat XI-IV 27 Jul 20:47:13 20:49:29 13° 277° (W) 20:51:45 437.490
GONETS M04 27 Jul 20:49:25 20:50:18 10° 337° (NNW) 20:51:09
M-CUBED/EXP-1 PRIME 27 Jul 20:51:36 20:54:49 23° 52° (NE) 20:58:13 437.505
PRISM 27 Jul 20:56:27 20:57:36 11° 86° (E) 20:58:45 437.425
AAUSAT CUBESAT 2 27 Jul 21:01:45 21:05:55 81° 72° (ENE) 21:10:05 437.432
CUBEBUG 2 27 Jul 21:02:42 21:07:21 77° 72° (ENE) 21:12:07 437.445
CANX-2 27 Jul 21:08:03 21:12:02 37° 264° (W) 21:16:01 2200.000
AUBIESAT-1 27 Jul 21:16:41 21:20:15 31° 56° (NE) 21:24:04 437.475
Oscar 11 27 Jul 21:19:20 21:23:36 56° 70° (ENE) 21:27:52 145.826/435.025
DELFI C3 27 Jul 21:19:57 21:23:20 27° 64° (ENE) 21:26:44 145.870
CUTE 1.7 + AOD 2 27 Jul 21:21:34 21:25:23 31° 265° (W) 21:29:14 437.475
STRAND 1 27 Jul 21:36:05 21:41:10 64° 291° (WNW) 21:46:12 437.568
CINEMA 3 27 Jul 21:38:09 21:41:48 23° 271° (W) 21:45:35 145.822/145.860
BEESAT 3 27 Jul 21:44:57 21:48:24 28° 332° (NNW) 21:51:53 437.485
HUMSAT D 27 Jul 21:48:24 21:52:10 30° 63° (ENE) 21:55:55 437.325/437.525
ISS 27 Jul 21:48:51 21:49:16 10° 139° (SE) 21:49:41 145.825
AO-85 27 Jul 21:49:19 21:53:55 50° 37° (NE) 21:58:06 145.980
O/OREOS (USA 219) 27 Jul 21:51:18 21:55:43 70° 117° (ESE) 22:00:13 437.305
BEESAT 2 27 Jul 21:52:00 21:55:39 34° 327° (NNW) 21:59:21 435.950
Cosmos 2504 27 Jul 21:59:51 22:08:01 52° 68° (ENE) 22:15:32 435.465 / 435.565
SEEDS 27 Jul 22:00:34 22:03:37 19° 270° (W) 22:06:41 437.485
COMPASS 1 27 Jul 22:10:58 22:14:06 20° 270° (W) 22:17:13 437.405
Cosmos 2491 27 Jul 22:11:20 22:19:46 58° 91° (E) 22:28:15 435.465 / 435.565
FUNcube-1 27 Jul 22:13:34 22:18:02 54° 260° (W) 22:22:34 145.935
ZACube-1 27 Jul 22:14:57 22:19:23 50° 261° (W) 22:23:53 437.345
UWE-3 27 Jul 22:16:15 22:20:30 35° 265° (W) 22:24:50 435.000/436.395/437.385
AIST 2 27 Jul 22:19:49 22:23:48 51° 127° (SE) 22:27:52 435.215
PCSat 27 Jul 22:20:52 22:25:57 38° 325° (NW) 22:31:02 145.827
M-CUBED/EXP-1 PRIME 27 Jul 22:25:09 22:29:00 56° 253° (WSW) 22:33:13 437.505
HO-68 27 Jul 22:26:16 22:31:08 19° 275° (W) 22:36:02 435.675
PRISM 27 Jul 22:29:29 22:33:36 82° 103° (ESE) 22:37:43 437.425
50 SAT 27 Jul 22:34:07 22:34:52 11° 54° (NE) 22:35:38 437.505
ESTCUBE 1 27 Jul 22:36:32 22:39:58 22° 58° (ENE) 22:43:24 437.505/2401.250
YUBILEINY 27 Jul 22:37:37 22:46:04 51° 272° (W) 22:54:26 435.215
AAUSAT CUBESAT 2 27 Jul 22:39:49 22:41:58 14° 273° (W) 22:44:07 437.432
CUBEBUG 2 27 Jul 22:41:25 22:44:33 18° 273° (W) 22:47:45 437.445
CUBEBUG 1 27 Jul 22:49:50 22:52:57 20° 58° (ENE) 22:56:06 437.445
VELOX 1 27 Jul 22:50:35 22:53:40 19° 56° (ENE) 22:56:46 145.980
AUBIESAT-1 27 Jul 22:50:55 22:54:38 39° 257° (WSW) 22:58:39 437.475
ANTELSAT 27 Jul 22:51:19 22:54:40 19° 89° (E) 22:57:56 437.575/2403.000
DELFI C3 27 Jul 22:54:23 22:58:06 37° 263° (W) 23:01:49 145.870
Oscar 11 27 Jul 22:56:45 23:00:04 21° 269° (W) 23:03:24 145.826/435.025
STRAND 1 27 Jul 23:16:43 23:19:26 15° 312° (NW) 23:22:08 437.568
ISS 27 Jul 23:21:58 23:25:00 35° 157° (SSE) 23:28:00 145.825
HUMSAT D 27 Jul 23:23:38 23:27:41 39° 263° (W) 23:31:46 437.325/437.525
BEESAT 3 27 Jul 23:24:46 23:27:15 16° 355° (N) 23:29:45 437.485
AO-85 27 Jul 23:30:09 23:34:14 33° 240° (WSW) 23:37:59 145.980
DX 1 27 Jul 23:31:37 23:35:26 31° 62° (ENE) 23:39:15 434.975-435.025
BEESAT 2 27 Jul 23:31:55 23:34:33 17° 351° (N) 23:37:12 435.950
O/OREOS (USA 219) 27 Jul 23:31:58 23:35:36 24° 318° (NW) 23:39:16 437.305
TIGRISAT 27 Jul 23:32:09 23:36:34 39° 96° (E) 23:40:52 435.000
AISAT 27 Jul 23:34:08 23:38:17 42° 66° (ENE) 23:42:28 437.250
UKube-1 27 Jul 23:43:49 23:47:39 32° 63° (ENE) 23:51:30 .
POPSAT HIP 1 27 Jul 23:45:06 23:46:17 11° 84° (E) 23:47:28 437.405
UNISAT 6 27 Jul 23:48:42 23:53:20 58° 101° (E) 23:57:51 437.425
Cosmos 2504 27 Jul 23:53:36 00:01:23 46° 273° (W) 00:08:36 435.465 / 435.565
AIST 1 27 Jul 23:55:02 23:58:27 22° 64° (ENE) 00:01:51
AIST 2 27 Jul 23:58:40 00:02:29 35° 328° (NNW) 00:06:20 435.215
50 SAT 28 Jul 00:04:12 00:07:51 75° 75° (ENE) 00:11:31 437.505
QB50P2 28 Jul 00:04:49 00:07:47 18° 89° (E) 00:10:45 145.880/145.840
PRISM 28 Jul 00:05:56 00:08:24 16° 305° (NW) 00:10:52 437.425
PCSat 28 Jul 00:06:50 00:10:50 20° 350° (N) 00:14:49 145.827
POLYITAN 1 28 Jul 00:07:26 00:10:27 18° 90° (E) 00:13:27 437.675
Cosmos 2491 28 Jul 00:08:48 00:17:00 44° 295° (WNW) 00:25:16 435.465 / 435.565
ESTCUBE 1 28 Jul 00:11:57 00:16:25 63° 258° (WSW) 00:20:54 437.505/2401.250
SPROUT 28 Jul 00:15:16 00:19:23 48° 69° (ENE) 00:23:33 437.525
CUBEBUG 1 28 Jul 00:24:32 00:28:50 67° 257° (WSW) 00:33:11 437.445
VELOX 1 28 Jul 00:25:17 00:29:40 74° 255° (WSW) 00:34:07 145.980
ANTELSAT 28 Jul 00:27:12 00:31:52 69° 289° (WNW) 00:36:25 437.575/2403.000
YUBILEINY 28 Jul 00:37:15 00:40:36 13° 296° (WNW) 00:43:56 435.215
ITUPSAT 1 28 Jul 00:42:43 00:43:46 11° 46° (NE) 00:44:50 437.325
GONETS M04 28 Jul 00:48:31 00:54:51 21° 47° (NE) 01:01:09
NANOSAT C BR1 28 Jul 00:49:11 00:53:14 40° 97° (E) 00:57:16 145.865
DUCHIFAT 1 28 Jul 00:53:04 00:57:08 41° 98° (E) 01:01:10 145.980
Cosmos 2499 28 Jul 00:57:17 01:01:59 16° 41° (NE) 01:06:30 435.465 / 435.565
ISS 28 Jul 00:57:56 01:01:11 67° 177° (S) 01:04:27 145.825
BEESAT 3 28 Jul 01:03:17 01:06:17 20° 19° (NNE) 01:09:16 437.485
BUGSAT 1 28 Jul 01:04:28 01:08:07 27° 94° (E) 01:11:45 437.445
DX 1 28 Jul 01:07:29 01:11:33 39° 262° (W) 01:15:39 434.975-435.025
TISAT 1 28 Jul 01:07:51 01:11:51 44° 67° (ENE) 01:15:55 437.305
TIGRISAT 28 Jul 01:08:59 01:13:12 34° 297° (WNW) 01:17:19 435.000
BEESAT 2 28 Jul 01:10:55 01:13:46 18° 15° (NNE) 01:16:37 435.950
AISAT 28 Jul 01:11:06 01:14:54 28° 266° (W) 01:18:46 437.250
QB50P1 28 Jul 01:11:59 01:16:18 68° 103° (ESE) 01:20:34 145.935-145.965
POPSAT HIP 1 28 Jul 01:18:31 01:22:51 77° 105° (ESE) 01:27:09 437.405
UKube-1 28 Jul 01:19:40 01:23:40 36° 263° (W) 01:27:42 .
JAS-2 28 Jul 01:22:02 01:26:44 32° 95° (E) 01:31:40 435.910
UNISAT 6 28 Jul 01:25:56 01:29:43 25° 301° (WNW) 01:33:27 437.425
SWISSCUBE 28 Jul 01:31:54 01:35:47 25° 58° (ENE) 01:39:41 437.505
AIST 1 28 Jul 01:32:08 01:36:22 53° 265° (W) 01:40:37
AIST 2 28 Jul 01:39:12 01:42:04 18° 351° (N) 01:44:56 435.215
QB50P2 28 Jul 01:39:45 01:44:03 65° 289° (WNW) 01:48:17 145.880/145.840
50 SAT 28 Jul 01:40:26 01:41:59 12° 272° (W) 01:43:31 437.505
POLYITAN 1 28 Jul 01:42:24 01:46:41 64° 289° (WNW) 01:50:55 437.675
Cosmos 2504 28 Jul 01:51:03 01:52:23 10° 298° (WNW) 01:53:43 435.465 / 435.565
PCSat 28 Jul 01:51:57 01:56:07 22° 16° (NNE) 02:00:19 145.827
SPROUT 28 Jul 01:52:06 01:55:35 24° 268° (W) 01:59:06 437.525
BEESAT 28 Jul 01:52:42 01:56:57 33° 62° (ENE) 02:01:13 436.000
ANTELSAT 28 Jul 02:05:26 02:07:46 14° 309° (NW) 02:10:04 437.575/2403.000
VELOX 1 28 Jul 02:05:54 02:06:58 11° 276° (W) 02:08:03 145.980
Cosmos 2491 28 Jul 02:12:26 02:16:52 14° 324° (NW) 02:21:19 435.465 / 435.565
ITUPSAT 1 28 Jul 02:15:57 02:20:34 48° 67° (ENE) 02:25:11 437.325
Gurwin Techsat 1B 28 Jul 02:23:50 02:27:19 17° 87° (E) 02:30:46 435.225
NANOSAT C BR1 28 Jul 02:25:09 02:28:53 29° 297° (WNW) 02:32:35 145.865
MOZHAYETS 4 28 Jul 02:28:17 02:30:24 13° 51° (NE) 02:32:32
DUCHIFAT 1 28 Jul 02:29:01 02:32:43 29° 297° (WNW) 02:36:24 145.980
ISS 28 Jul 02:34:18 02:37:28 47° 197° (SSW) 02:40:37 145.825
Oscar 19 28 Jul 02:35:13 02:40:03 39° 97° (E) 02:44:54 437.125/150
BUGSAT 1 28 Jul 02:39:37 02:43:39 42° 293° (WNW) 02:47:41 437.445
BEESAT 3 28 Jul 02:40:46 02:44:42 58° 41° (NE) 02:48:38 437.485
TISAT 1 28 Jul 02:44:12 02:47:42 25° 267° (W) 02:51:15 437.305
GONETS M04 28 Jul 02:44:58 02:53:44 65° 73° (ENE) 03:02:31
QB50P1 28 Jul 02:48:34 02:51:39 19° 302° (WNW) 02:54:43 145.935-145.965
BEESAT 2 28 Jul 02:48:38 02:52:31 45° 37° (NE) 02:56:22 435.950
Cosmos 2499 28 Jul 02:49:39 02:57:32 52° 69° (ENE) 03:04:46 435.465 / 435.565
POPSAT HIP 1 28 Jul 02:55:16 02:58:09 18° 303° (WNW) 03:01:01 437.405
JAS-2 28 Jul 03:07:05 03:12:05 48° 294° (WNW) 03:17:22 435.910
SWISSCUBE 28 Jul 03:08:32 03:13:17 60° 258° (WSW) 03:18:02 437.505
QB50P2 28 Jul 03:17:26 03:19:03 12° 309° (NW) 03:20:40 145.880/145.840
AIST 2 28 Jul 03:18:52 03:21:57 20° 15° (NNE) 03:25:02 435.215
POLYITAN 1 28 Jul 03:20:07 03:21:41 12° 309° (NW) 03:23:15 437.675
KKS-1 28 Jul 03:21:43 03:25:36 30° 62° (ENE) 03:29:31 437.445
BEESAT 28 Jul 03:30:05 03:34:39 43° 262° (W) 03:39:14 436.000
PCSat 28 Jul 03:35:30 03:40:48 48° 40° (NE) 03:46:03 145.827
AO-7 28 Jul 03:46:34 03:52:23 20° 85° (E) 03:58:09 29.400- 29.500
CUBESAT XI-V 28 Jul 03:50:37 03:52:19 12° 50° (NE) 03:54:01 437.345
ITUPSAT 1 28 Jul 03:54:27 03:58:37 29° 266° (W) 04:02:48 437.325
CUSAT 1 28 Jul 03:57:29 04:00:16 21° 97° (E) 04:02:40 437.405
STARS 28 Jul 03:57:40 04:01:38 34° 64° (ENE) 04:05:40 437.465
MOZHAYETS 4 28 Jul 04:02:10 04:06:45 66° 71° (ENE) 04:11:22
Gurwin Techsat 1B 28 Jul 04:02:39 04:08:02 89° 297° (WNW) 04:13:22 435.225
ISS 28 Jul 04:11:17 04:13:22 16° 216° (SW) 04:15:26 145.825
ITAMSAT 1 28 Jul 04:11:33 04:16:32 43° 98° (E) 04:21:28 435.822/435.867
Oscar 19 28 Jul 04:14:37 04:19:25 40° 297° (WNW) 04:24:14 437.125/150
BEESAT 3 28 Jul 04:18:53 04:22:08 24° 241° (WSW) 04:25:21 437.485
BEESAT 2 28 Jul 04:26:39 04:30:17 34° 238° (WSW) 04:33:54 435.950
DANDE 28 Jul 04:28:11 04:32:04 24° 95° (E) 04:35:14 436.750
O/OREOS (USA 219) 28 Jul 04:37:14 04:40:05 16° 35° (NE) 04:42:55 437.305
GONETS M04 28 Jul 04:42:19 04:50:09 38° 277° (W) 04:58:02
Cosmos 2499 28 Jul 04:43:09 04:50:33 43° 274° (W) 04:57:25 435.465 / 435.565
JAS-2 28 Jul 04:54:44 04:56:05 11° 316° (NW) 04:57:28 435.910
AIST 2 28 Jul 04:57:15 05:01:20 48° 38° (NE) 05:05:24 435.215
KKS-1 28 Jul 04:57:51 05:02:04 42° 262° (W) 05:06:20 437.445
PCSat 28 Jul 05:19:05 05:24:14 44° 242° (WSW) 05:29:19 145.827
CUBESAT XI-V 28 Jul 05:24:17 05:28:49 59° 70° (ENE) 05:33:22 437.345
STARS 28 Jul 05:33:57 05:37:59 35° 263° (W) 05:42:07 437.465
AO-7 28 Jul 05:38:16 05:46:41 74° 108° (ESE) 05:55:00 29.400- 29.500
CUSAT 1 28 Jul 05:39:19 05:42:14 24° 290° (WNW) 05:44:43 437.405
MOZHAYETS 4 28 Jul 05:41:00 05:44:23 20° 271° (W) 05:47:47
STRAND 1 28 Jul 05:43:14 05:45:54 14° 48° (NE) 05:48:33 437.568
Gurwin Techsat 1B 28 Jul 05:43:33 05:47:20 20° 307° (NW) 05:51:08 435.225
ITAMSAT 1 28 Jul 05:51:13 05:55:58 36° 298° (WNW) 06:00:40 435.822/435.867
HORYU 2 28 Jul 06:06:27 06:10:35 35° 97° (E) 06:14:41 437.375
DANDE 28 Jul 06:10:13 06:14:47 40° 287° (WNW) 06:18:19 436.750
NOAA 15 28 Jul 06:15:33 06:18:13 14° 85° (E) 06:20:53 137.62
O/OREOS (USA 219) 28 Jul 06:15:53 06:20:24 64° 57° (ENE) 06:24:55 437.305
Cosmos 2491 28 Jul 06:17:30 06:21:47 14° 35° (NE) 06:26:04 435.465 / 435.565
GOMX 1 28 Jul 06:21:47 06:22:54 11° 82° (E) 06:24:02 467.674
AIST 2 28 Jul 06:35:58 06:39:43 33° 238° (WSW) 06:43:28 435.215
NOAA 18 28 Jul 06:43:11 06:46:59 18° 88° (E) 06:50:44 137.9125
BRITE-PL 28 Jul 07:00:36 07:05:03 39° 97° (E) 07:09:49 437.365/2234.400
CUBESAT XI-V 28 Jul 07:03:02 07:06:35 22° 269° (W) 07:10:09 437.345
RS-15 28 Jul 07:08:20 07:18:49 43° 110° (ESE) 07:29:47 29.354- 29.394
LilacSat-2 28 Jul 07:11:16 07:14:33 25° 93° (E) 07:17:47 437.200
Cubesat XI-IV 28 Jul 07:14:03 07:18:48 31° 94° (E) 07:23:30 437.490
STRAND 1 28 Jul 07:19:05 07:24:09 62° 69° (ENE) 07:29:15 437.568
AO-7 28 Jul 07:31:29 07:38:59 39° 311° (NW) 07:46:28 29.400- 29.500
CUTE-I 28 Jul 07:37:10 07:42:20 46° 99° (E) 07:47:26 437.470
HORYU 2 28 Jul 07:43:03 07:47:10 36° 296° (WNW) 07:51:14 437.375
DOVE 4 28 Jul 07:44:39 07:49:02 28° 92° (E) 07:53:30 437.250
CINEMA 3 28 Jul 07:50:13 07:51:44 11° 81° (E) 07:53:14 145.822/145.860
PRISM 28 Jul 07:50:48 07:53:47 20° 58° (ENE) 07:56:46 437.425
NOAA 15 28 Jul 07:53:38 07:58:56 76° 106° (ESE) 08:04:11 137.62
O/OREOS (USA 219) 28 Jul 07:56:01 07:59:24 21° 257° (WSW) 08:02:48 437.305
GOMX 1 28 Jul 07:56:59 08:01:55 61° 101° (E) 08:07:09 467.674
HO-68 28 Jul 07:57:17 08:01:26 16° 82° (E) 08:05:33 435.675
YUBILEINY 28 Jul 08:02:05 08:03:25 10° 61° (ENE) 08:04:46 435.215
Cosmos 2491 28 Jul 08:13:30 08:21:44 42° 64° (ENE) 08:29:57 435.465 / 435.565
SO-50 28 Jul 08:15:24 08:18:55 20° 115° (ESE) 08:22:26 436.795
NOAA 18 28 Jul 08:22:48 08:28:25 89° 284° (WNW) 08:33:57 137.9125
BRITE-PL 28 Jul 08:39:15 08:43:33 36° 295° (WNW) 08:48:09 437.365/2234.400
LilacSat-2 28 Jul 08:45:21 08:48:58 37° 293° (WNW) 08:52:32 437.200
CANX-2 28 Jul 08:46:46 08:50:19 25° 93° (E) 08:53:49 2200.000
CUBEBUG 2 28 Jul 08:49:17 08:51:11 12° 83° (E) 08:53:03 437.445
Cubesat XI-IV 28 Jul 08:53:55 08:59:08 52° 294° (WNW) 09:04:18 437.490
STRAND 1 28 Jul 08:59:33 09:03:45 25° 268° (W) 09:07:57 437.568
CUTE 1.7 + AOD 2 28 Jul 08:59:51 09:03:34 29° 94° (E) 09:07:16 437.475
TIGRISAT 28 Jul 09:02:33 09:05:01 14° 52° (NE) 09:07:31 435.000
CUTE-I 28 Jul 09:17:27 09:22:18 36° 299° (WNW) 09:27:08 437.470
UNISAT 6 28 Jul 09:18:18 09:21:36 19° 56° (NE) 09:24:55 437.425
RS-15 28 Jul 09:18:42 09:30:28 81° 318° (NW) 09:42:51 29.354- 29.394
DOVE 4 28 Jul 09:22:01 09:26:59 56° 291° (WNW) 09:32:08 437.250
PRISM 28 Jul 09:24:44 09:28:45 59° 258° (WSW) 09:32:48 437.425
CINEMA 3 28 Jul 09:24:50 09:29:52 64° 101° (ESE) 09:34:50 145.822/145.860
AO-7 28 Jul 09:24:51 09:29:35 17° 336° (NNW) 09:34:18 29.400- 29.500
NOAA 15 28 Jul 09:34:08 09:38:14 24° 305° (NW) 09:42:20 137.62
GOMX 1 28 Jul 09:35:38 09:39:44 27° 299° (WNW) 09:44:02 467.674
SEEDS 28 Jul 09:36:37 09:40:41 48° 99° (E) 09:44:43 437.485
HO-68 28 Jul 09:43:23 09:50:36 66° 105° (ESE) 09:57:45 435.675
COMPASS 1 28 Jul 09:46:09 09:50:08 43° 98° (E) 09:54:04 437.405
YUBILEINY 28 Jul 09:49:34 09:57:42 44° 86° (E) 10:05:54 435.215
SO-50 28 Jul 09:53:59 09:58:53 88° 314° (NW) 10:03:43 436.795
ANTELSAT 28 Jul 09:55:29 09:59:44 35° 64° (ENE) 10:04:01 437.575/2403.000
FUNcube-1 28 Jul 09:55:57 09:59:24 21° 90° (E) 10:02:45 145.935
ZACube-1 28 Jul 09:57:29 10:01:05 23° 91° (E) 10:04:37 437.345
UWE-3 28 Jul 09:59:22 10:03:36 34° 94° (E) 10:07:44 435.000/436.395/437.385
NOAA 18 28 Jul 10:04:20 10:08:25 21° 309° (NW) 10:12:30 137.9125
Cosmos 2491 28 Jul 10:10:29 10:19:02 61° 268° (W) 10:27:36 435.465 / 435.565
AAUSAT CUBESAT 2 28 Jul 10:13:10 10:17:18 65° 102° (ESE) 10:21:22 437.432
NANOSAT C BR1 28 Jul 10:14:37 10:16:11 12° 51° (NE) 10:17:45 145.865
DUCHIFAT 1 28 Jul 10:18:12 10:19:49 12° 52° (NE) 10:21:27 145.980
CANX-2 28 Jul 10:22:20 10:26:22 43° 292° (WNW) 10:30:21 2200.000
CUBEBUG 2 28 Jul 10:23:53 10:28:40 75° 103° (ESE) 10:33:19 437.445
DELFI C3 28 Jul 10:26:04 10:28:54 19° 91° (E) 10:31:44 145.870
CUTE 1.7 + AOD 2 28 Jul 10:35:36 10:39:31 37° 294° (WNW) 10:43:23 437.475
Cubesat XI-IV 28 Jul 10:35:47 10:38:06 13° 315° (NW) 10:40:26 437.490
QB50P1 28 Jul 10:36:11 10:39:05 18° 57° (ENE) 10:41:59 145.935-145.965
Oscar 11 28 Jul 10:36:16 10:40:29 48° 99° (E) 10:44:40 145.826/435.025
TIGRISAT 28 Jul 10:36:17 10:40:55 71° 72° (ENE) 10:45:39 435.000
POPSAT HIP 1 28 Jul 10:42:31 10:45:36 20° 58° (ENE) 10:48:43 437.405
Cosmos 2504 28 Jul 10:45:12 10:53:03 37° 83° (E) 11:00:46 435.465 / 435.565
UNISAT 6 28 Jul 10:53:05 10:57:46 81° 255° (WSW) 11:02:32 437.425
HUMSAT D 28 Jul 11:01:02 11:04:23 22° 91° (E) 11:07:41 437.325/437.525
DOVE 4 28 Jul 11:01:31 11:03:45 13° 310° (NW) 11:06:00 437.250
CINEMA 3 28 Jul 11:02:33 11:06:37 25° 301° (WNW) 11:10:42 145.822/145.860
QB50P2 28 Jul 11:02:59 11:06:42 30° 63° (ENE) 11:10:28 145.880/145.840
POLYITAN 1 28 Jul 11:05:35 11:09:21 30° 63° (ENE) 11:13:08 437.675
SEEDS 28 Jul 11:12:48 11:16:10 24° 299° (WNW) 11:19:32 437.485
AO-7 28 Jul 11:16:12 11:19:05 12° 4° (N) 11:21:57 29.400- 29.500
COMPASS 1 28 Jul 11:22:05 11:25:31 26° 298° (WNW) 11:28:57 437.405
HO-68 28 Jul 11:31:32 11:37:59 37° 306° (NW) 11:44:24 435.675
FUNcube-1 28 Jul 11:31:34 11:36:02 59° 290° (WNW) 11:40:22 145.935
ANTELSAT 28 Jul 11:32:02 11:36:24 39° 263° (W) 11:40:51 437.575/2403.000
M-CUBED/EXP-1 PRIME 28 Jul 11:32:17 11:36:46 43° 104° (ESE) 11:41:17 437.505
RS-15 28 Jul 11:33:13 11:44:48 51° 349° (N) 11:56:47 29.354- 29.394
ZACube-1 28 Jul 11:33:15 11:37:43 54° 291° (WNW) 11:42:03 437.345
SO-50 28 Jul 11:35:41 11:39:57 30° 336° (NNW) 11:44:11 436.795
UWE-3 28 Jul 11:35:48 11:40:07 38° 295° (WNW) 11:44:20 435.000/436.395/437.385
JAS-2 28 Jul 11:41:25 11:46:17 31° 60° (ENE) 11:50:52 435.910
YUBILEINY 28 Jul 11:45:43 11:54:21 57° 290° (WNW) 12:03:06 435.215
NANOSAT C BR1 28 Jul 11:46:55 11:51:08 65° 71° (ENE) 11:55:23 145.865
AAUSAT CUBESAT 2 28 Jul 11:49:30 11:52:23 19° 301° (WNW) 11:55:16 437.432
DUCHIFAT 1 28 Jul 11:50:32 11:54:44 67° 72° (ENE) 11:59:00 145.980
AUBIESAT-1 28 Jul 11:57:13 12:01:50 60° 107° (ESE) 12:06:26 437.475
ESTCUBE 1 28 Jul 11:58:51 12:01:59 18° 89° (E) 12:05:05 437.505/2401.250
BUGSAT 1 28 Jul 11:59:51 12:03:44 41° 67° (ENE) 12:07:41 437.445
DELFI C3 28 Jul 12:00:13 12:04:05 53° 290° (WNW) 12:07:55 145.870
CUBEBUG 2 28 Jul 12:01:18 12:04:47 21° 303° (WNW) 12:08:13 437.445
CUBEBUG 1 28 Jul 12:07:49 12:10:28 15° 88° (E) 12:13:06 437.445
Cosmos 2491 28 Jul 12:09:19 12:14:00 16° 292° (WNW) 12:18:41 435.465 / 435.565
QB50P1 28 Jul 12:10:08 12:14:23 75° 257° (WSW) 12:18:42 145.935-145.965
VELOX 1 28 Jul 12:10:20 12:12:45 14° 87° (E) 12:15:10 145.980
Oscar 11 28 Jul 12:12:51 12:16:24 25° 299° (WNW) 12:19:56 145.826/435.025
TIGRISAT 28 Jul 12:14:47 12:18:07 19° 271° (W) 12:21:29 435.000
Gurwin Techsat 1B 28 Jul 12:14:53 12:16:50 12° 44° (NE) 12:18:47 435.225
POPSAT HIP 1 28 Jul 12:16:45 12:20:59 66° 257° (WSW) 12:25:17 437.405
Oscar 19 28 Jul 12:20:48 12:24:35 21° 54° (NE) 12:28:24 437.125/150
UNISAT 6 28 Jul 12:33:02 12:35:16 13° 275° (W) 12:37:31 437.425
HUMSAT D 28 Jul 12:36:12 12:40:17 49° 291° (WNW) 12:44:18 437.325/437.525
Cosmos 2504 28 Jul 12:37:05 12:45:58 70° 285° (WNW) 12:54:42 435.465 / 435.565
QB50P2 28 Jul 12:38:25 12:42:26 39° 262° (W) 12:46:29 145.880/145.840
POLYITAN 1 28 Jul 12:41:04 12:45:04 38° 263° (W) 12:49:08 437.675
DX 1 28 Jul 12:49:23 12:52:56 23° 93° (E) 12:56:27 434.975-435.025
AISAT 28 Jul 12:54:11 12:58:19 35° 97° (E) 13:02:25 437.250
50 SAT 28 Jul 13:00:24 13:03:47 37° 98° (E) 13:07:08 437.505
UKube-1 28 Jul 13:00:27 13:03:59 24° 93° (E) 13:07:30 .
AO-7 28 Jul 13:03:11 13:08:46 20° 31° (NNE) 13:14:19 29.400- 29.500
M-CUBED/EXP-1 PRIME 28 Jul 13:06:58 13:11:11 35° 303° (WNW) 13:15:28 437.505
FUNcube-1 28 Jul 13:09:50 13:11:21 12° 310° (NW) 13:12:52 145.935
ZACube-1 28 Jul 13:11:53 13:13:02 11° 311° (NW) 13:14:09 437.345
SO-50 28 Jul 13:18:09 13:21:48 21° 1° (N) 13:25:23 436.795
HO-68 28 Jul 13:20:41 13:23:48 13° 330° (NNW) 13:26:54 435.675
NANOSAT C BR1 28 Jul 13:24:24 13:27:18 18° 271° (W) 13:30:14 145.865
JAS-2 28 Jul 13:25:35 13:31:16 54° 259° (W) 13:36:30 435.910
DUCHIFAT 1 28 Jul 13:28:03 13:30:53 17° 271° (W) 13:33:46 145.980
SPROUT 28 Jul 13:30:42 13:34:48 39° 97° (E) 13:38:51 437.525
AUBIESAT-1 28 Jul 13:32:08 13:35:59 27° 306° (NW) 13:39:51 437.475
ESTCUBE 1 28 Jul 13:34:47 13:39:16 68° 289° (WNW) 13:43:44 437.505/2401.250
BUGSAT 1 28 Jul 13:35:46 13:39:16 26° 266° (W) 13:42:50 437.445
CUBEBUG 1 28 Jul 13:42:54 13:47:18 79° 289° (WNW) 13:51:43 437.445
VELOX 1 28 Jul 13:45:23 13:49:52 87° 286° (WNW) 13:54:19 145.980
YUBILEINY 28 Jul 13:47:46 13:53:35 19° 317° (NW) 13:59:27 435.215
RS-15 28 Jul 13:48:06 14:00:06 56° 22° (NNE) 14:12:14 29.354- 29.394
AO-85 28 Jul 13:49:58 13:53:51 21° 114° (ESE) 13:57:37 145.980
QB50P1 28 Jul 13:50:07 13:50:58 10° 276° (W) 13:51:48 145.935-145.965
Gurwin Techsat 1B 28 Jul 13:50:32 13:55:38 48° 65° (ENE) 14:00:45 435.225
ITAMSAT 1 28 Jul 13:57:44 14:01:55 25° 56° (NE) 14:06:07 435.822/435.867
Oscar 19 28 Jul 13:58:15 14:03:22 82° 254° (WSW) 14:08:34 437.125/150
GONETS M04 28 Jul 14:02:52 14:07:13 15° 67° (ENE) 14:11:35
AIST 1 28 Jul 14:07:27 14:11:39 63° 97° (E) 14:15:54
TISAT 1 28 Jul 14:21:00 14:24:53 33° 96° (E) 14:28:46 437.305
CUSAT 1 28 Jul 14:22:02 14:24:24 23° 70° (ENE) 14:27:05 437.405
DX 1 28 Jul 14:25:09 14:29:24 51° 292° (WNW) 14:33:39 434.975-435.025
AISAT 28 Jul 14:30:44 14:34:48 35° 296° (WNW) 14:38:51 437.250
50 SAT 28 Jul 14:34:22 14:37:17 23° 297° (WNW) 14:40:10 437.505
Cosmos 2504 28 Jul 14:34:30 14:41:10 23° 310° (NW) 14:47:43 435.465 / 435.565
UKube-1 28 Jul 14:36:05 14:40:17 49° 292° (WNW) 14:44:27 .
AO-7 28 Jul 14:51:48 14:59:46 51° 56° (NE) 15:07:45 29.400- 29.500
DANDE 28 Jul 14:59:08 15:00:56 16° 66° (ENE) 15:02:45 436.750
SO-50 28 Jul 14:59:21 15:03:36 31° 25° (NNE) 15:07:44 436.795
SWISSCUBE 28 Jul 15:02:48 15:06:35 23° 92° (E) 15:10:19 437.505
SPROUT 28 Jul 15:06:52 15:10:40 30° 297° (WNW) 15:14:27 437.525
ESTCUBE 1 28 Jul 15:13:15 15:15:18 13° 309° (NW) 15:17:22 437.505/2401.250
CUBEBUG 1 28 Jul 15:20:35 15:22:56 14° 307° (NW) 15:25:17 437.445
VELOX 1 28 Jul 15:23:03 15:25:42 16° 306° (NW) 15:28:22 145.980
BEESAT 28 Jul 15:23:44 15:27:58 31° 95° (E) 15:32:10 436.000
AO-85 28 Jul 15:28:31 15:33:51 89° 133° (SE) 15:38:51 145.980
Gurwin Techsat 1B 28 Jul 15:31:01 15:35:47 33° 265° (W) 15:40:36 435.225
Cosmos 2499 28 Jul 15:33:04 15:40:53 37° 83° (E) 15:48:25 435.465 / 435.565
ITAMSAT 1 28 Jul 15:35:46 15:40:59 70° 256° (WSW) 15:46:14 435.822/435.867
HORYU 2 28 Jul 15:36:34 15:38:45 13° 51° (NE) 15:40:55 437.375
Oscar 19 28 Jul 15:40:44 15:43:33 15° 275° (W) 15:46:22 437.125/150
AIST 1 28 Jul 15:46:40 15:49:43 19° 298° (WNW) 15:52:47
ITUPSAT 1 28 Jul 15:47:40 15:52:18 47° 99° (E) 15:56:54 437.325
GONETS M04 28 Jul 15:53:38 16:02:04 58° 91° (E) 16:10:34
MOZHAYETS 4 28 Jul 15:54:09 15:54:23 10° 82° (E) 15:54:36
TISAT 1 28 Jul 15:56:41 16:00:34 34° 295° (WNW) 16:04:25 437.305
RS-15 28 Jul 16:01:24 16:13:45 82° 231° (SW) 16:26:03 29.354- 29.394
CUSAT 1 28 Jul 16:04:06 16:06:21 20° 264° (W) 16:08:53 437.405
DX 1 28 Jul 16:04:26 16:04:39 10° 312° (NW) 16:04:52 434.975-435.025
NOAA 15 28 Jul 16:06:39 16:07:16 10° 42° (NE) 16:07:52 137.62
